EW7084 Weather Reports


time (UTC)temp
F
wind
direction
speed
knots
gust
knots
rain 1hr
in
rain 24hr
in
rain mn
in
humidity
%
barometer
mb
20260506134527 56 168 2.6 6.1 0.11 0.33 0.22 91 1006.3
20260506133025 56 146 0.0 4.3 0.12 0.31 0.20 91 1006.7
20260506131524 56 146 0.9 4.3 0.13 0.28 0.18 91 1007.0
20260506130027 56 155 2.6 8.7 0.11 0.26 0.15 91 1007.2
20260506124523 56 157 2.6 7.0 0.07 0.22 0.11 91 1007.5
20260506123022 56 162 2.6 6.1 0.04 0.19 0.08 91 1007.0
20260506121520 55 276 0.0 0.9 0.02 0.16 0.05 91 1006.9
20260506120027 55 276 0.0 0.0 0.01 0.15 0.04 90 1006.9
20260506114521 55 276 0.0 1.7 0.01 0.15 0.04 90 1007.2
20260506113019 54 276 0.0 1.7 0.01 0.15 0.04 90 1007.3
20260506111521 54 276 0.0 1.7 0.01 0.14 0.03 90 1007.1
20260506110018 54 276 0.0 0.9 0.02 0.14 0.03 89 1007.2
20260506104517 54 276 0.0 0.9 0.02 0.14 0.03 90 1007.2
20260506103021 54 276 0.0 1.7 0.02 0.14 0.03 89 1007.2
20260506101517 54 276 0.0 1.7 0.01 0.13 0.02 89 1007.0
20260506100015 54 276 0.0 0.0 0.00 0.12 0.01 89 1006.8
20260506094515 54 276 0.0 0.9 0.00 0.12 0.01 89 1006.9
20260506093018 54 276 0.0 0.9 0.01 0.12 0.01 88 1006.8
20260506091515 54 276 0.0 0.9 0.01 0.12 0.01 88 1007.0
20260506084513 54 276 0.0 1.7 0.01 0.12 0.01 88 1007.5
20260506083009 54 276 0.9 1.7 0.00 0.11 0.00 88 1007.6
20260506081509 54 276 0.9 2.6 0.00 0.11 0.00 88 1007.6
20260506073009 54 276 0.0 0.9 0.00 0.11 0.00 88 1007.3
20260506071507 54 276 0.0 0.9 0.00 0.11 0.00 87 1007.2
20260506061604 55 276 0.0 1.7 0.00 0.11 0.00 86 1007.9
20260506044547 56 276 0.0 1.7 0.00 0.11 0.00 84 1009.1
20260506043051 56 276 0.0 0.0 0.00 0.11 0.00 83 1009.0
20260506041557 56 276 0.0 0.9 0.00 0.11 0.00 82 1009.0
20260506040043 57 276 0.0 1.7 0.00 0.11 0.00 82 1009.2
20260506034541 57 276 0.0 1.7 0.00 0.11 0.11 83 1009.5
20260506033042 57 276 0.0 2.6 0.00 0.11 0.11 82 1009.7
20260506031542 57 276 0.0 2.6 0.00 0.11 0.11 83 1009.5
20260506030038 58 276 0.9 5.2 0.00 0.11 0.11 85 1009.3
20260506024536 59 345 1.7 5.2 0.00 0.11 0.11 87 1009.4
20260506023047 60 294 0.9 3.5 0.00 0.11 0.11 88 1009.2
20260506021533 60 294 0.0 2.6 0.00 0.11 0.11 88 1008.9
20260506020105 61 294 0.9 1.7 0.00 0.11 0.11 88 1008.7
20260506014631 61 294 0.0 1.7 0.00 0.11 0.11 88 1008.6
20260506013030 61 294 0.0 0.9 0.00 0.11 0.11 88 1008.5
20260506011530 61 294 0.9 3.5 0.00 0.11 0.11 87 1008.0
20260506010030 62 294 0.9 2.6 0.00 0.11 0.11 86 1007.9
20260506004527 62 294 0.0 0.9 0.00 0.11 0.11 86 1007.8
20260506003027 63 294 0.0 2.6 0.00 0.11 0.11 86 1007.4
20260506001526 63 294 0.0 0.0 0.00 0.11 0.11 86 1007.4
20260506000042 64 294 0.0 1.7 0.00 0.11 0.11 86 1007.1
20260505234525 64 294 0.0 0.9 0.00 0.11 0.11 86 1007.3
20260505233027 65 294 0.0 1.7 0.00 0.11 0.11 85 1007.1
20260505231529 65 294 0.0 1.7 0.00 0.11 0.11 85 1007.1
20260505230038 65 294 0.0 0.9 0.00 0.11 0.11 85 1007.0
20260505224524 65 294 0.0 1.7 0.00 0.11 0.11 84 1007.0
20260505223021 65 294 0.0 2.6 0.00 0.11 0.11 83 1007.0
20260505221521 66 294 0.9 2.6 0.00 0.11 0.11 81 1006.9
20260505220020 67 294 1.7 3.5 0.00 0.11 0.11 78 1007.0
20260505214521 67 294 0.0 2.6 0.00 0.11 0.11 77 1006.5
20260505213021 67 294 0.9 2.6 0.00 0.11 0.11 77 1006.3
20260505211528 66 294 0.9 3.5 0.00 0.11 0.11 80 1006.3
20260505210017 66 294 0.9 2.6 0.00 0.11 0.11 83 1006.4
20260505204515 65 294 1.7 3.5 0.11 0.11 0.11 81 1006.5
20260505203017 65 294 0.9 3.5 0.11 0.11 0.11 79 1006.8
20260505201513 65 294 0.0 3.5 0.11 0.11 0.11 76 1006.8
20260505200012 66 294 0.9 7.8 0.11 0.11 0.11 72 1006.6
20260505194510 75 269 9.6 19.1 0.00 0.00 0.00 43 1006.7
20260505193011 76 178 6.1 16.5 0.00 0.00 0.00 41 1004.9
20260505191512 78 155 10.4 19.1 0.00 0.00 0.00 39 1004.7
20260505190006 79 192 8.7 20.9 0.00 0.00 0.00 36 1004.6
20260505184504 78 157 9.6 20.0 0.00 0.00 0.00 38 1004.8
20260505183100 78 171 9.6 28.7 0.00 0.00 0.00 40 1005.5
20260505181641 77 161 14.8 23.5 0.00 0.00 0.00 42 1005.7
20260505180104 76 203 5.2 10.4 0.00 0.00 0.00 48 1006.0
20260505174554 76 161 7.0 13.9 0.00 0.00 0.00 45 1006.1
20260505173054 75 158 7.8 13.9 0.00 0.00 0.00 46 1006.4
20260505171600 75 194 5.2 17.4 0.00 0.00 0.00 45 1006.3
20260505170052 76 209 10.4 20.0 0.00 0.00 0.00 46 1006.1
20260505164549 76 113 9.6 22.6 0.00 0.00 0.00 46 1006.1
20260505163048 75 171 8.7 15.6 0.00 0.00 0.00 46 1006.3
20260505161548 76 162 7.0 19.1 0.00 0.00 0.00 48 1006.6
20260505153045 75 157 9.6 16.5 0.00 0.00 0.00 46 1006.7
20260505151541 75 155 8.7 16.5 0.00 0.00 0.00 45 1006.7